AirNav   Pilot Hours Calculator
 
 1507 users online  

NH06 Dynasty Farms Heliport
Salem, New Hampshire, USA

GOING TO SALEM?


FAA INFORMATION EFFECTIVE 31 DECEMBER 2020

Location

FAA Identifier: NH06
Lat/Long: 42-48-12.3200N 071-10-58.2100W
42-48.205333N 071-10.970167W
42.8034222,-71.1828361
(estimated)
Elevation: 295 ft. / 90 m (estimated)
Variation: 16W (1995)
From city: 3 miles NE of SALEM, NH
Time zone: UTC -5 (UTC -4 during Daylight Saving Time)
Zip code: 03079

Heliport Operations

Heliport use: Private use. Permission required prior to landing
Activation date: 05/1999
Control tower: no
ARTCC: BOSTON CENTER
FSS: BANGOR FLIGHT SERVICE STATION
Attendance: CONTINUOUS
Segmented circle: no

Heliport Communications

WX ASOS at LWM (6 nm SE): PHONE 978-687-8017
WX ASOS at MHT (14 nm NW): 119.55 (603-621-1766)
WX AWOS-3PT at ASH (15 nm W): 125.1 (603-578-0473)
WX ASOS at BVY (18 nm SE): 119.2 (978-921-5042)

Nearby radio navigation aids

VOR radial/distance  VOR name  Freq  Var
LWMr329/5.4LAWRENCE VOR/DME112.5015W
MHTr130/9.1MANCHESTER VOR/DME114.4015W
PSMr238/22.8PEASE VOR/DME116.5016W
BOSr358/28.1BOSTON VOR/DME112.7016W
CONr160/30.3CONCORD VOR/DME112.9015W

 
NDB name  Hdg/Dist  Freq  Var  ID
ROLLINS228/29.426016WESG . ... --.

Heliport Services

Runway Information

Helipad H1

Dimensions: 100 x 100 ft. / 30 x 30 m
Surface: turf
Traffic pattern: leftleft

Heliport Ownership and Management from official FAA records

Ownership: Privately-owned
Owner: ROBERT G. DONNELLY
11 LIBERTY ST
SALEM, NH 03079
Phone 603-898-7123
Manager: ROBERT G. DONNELLY
11 LIBERTY ST
SALEM,, NH 03079
Phone 603-898-7123

Heliport Operational Statistics

Aircraft based on the field: 1
Helicopters: 1
    

Additional Remarks

FOR CD CTC BOSTON APCH AT 603-594-5551.

Instrument Procedures

There are no published instrument procedures at NH06.

Some nearby airports with instrument procedures:

KLWM - Lawrence Municipal Airport (6 nm SE)
KMHT - Manchester Airport (14 nm NW)
KASH - Boire Field Airport (15 nm W)
KBVY - Beverly Regional Airport (18 nm SE)
KBED - Laurence G Hanscom Field Airport (21 nm S)
 
Loc | Ops | Rwys | IFR | FBO | Links
Com | Nav | Svcs | Stats | Notes
Area around NH06 (Dynasty Farms Heliport)
 
Road maps at: MapQuest Bing Google
 
Aerial photo
No photo
 
Sectional chart

 
Airport distance calculator
Flying to Dynasty Farms Heliport? Find the distance to fly.

From to NH06

Sunrise and sunset
Times for 15-Jan-2021
 Local
(UTC-5)
 Zulu
(UTC)
Morning civil twilight06:4211:42
Sunrise07:1412:14
Sunset16:3521:35
Evening civil twilight17:0622:06

Current date and time
Zulu (UTC)  15-Jan-2021 17:58:37
Local (UTC-5)  15-Jan-2021 12:58:37
 
METAR
KLWM 
6nm SE 
151754Z 10008KT 070V140 10SM CLR 06/M02 A3007 RMK AO2 SLP182 T00611022 10061 20000 58012
KMHT 
13nm NW 
151753Z 11008KT 10SM FEW045 BKN250 07/M04 A3003 RMK AO2 SLP185 T00671044 10067 20000 58016
KASH 
15nm W 
151656Z 12007KT 10SM CLR 06/M03 A3006 RMK AO2 SLP185 T00561028
KBVY 
18nm SE 
151753Z 08007KT 10SM FEW030 06/00 A3005 RMK AO2 SLP173 6//// I6000 T00560000 10061 21017 58008 PNO
TAF
KMHT 
13nm NW 
151524Z 1515/1612 06005KT P6SM FEW035 FM152100 10005KT P6SM BKN045 FM160000 09005KT 6SM BR OVC015 FM160700 06009KT 4SM -SNRA BR OVC015 FM161100 05016KT 4SM RA OVC007
NOTAMs
Click for the latest NOTAMs
NOTAMs are issued by the DoD/FAA and will open in a separate window not controlled by AirNav.

 

 
 

Would you like to see your business listed on this page?

 If your business provides an interesting product or service to pilots, flight crews, aircraft, or users of the Dynasty Farms Heliport, you should consider listing it here.  To start the listing process, click on the button below
 
Add a business
 

Other Pages about Dynasty Farms Heliport

Update a link
 
Copyright © AirNav, LLC. All rights reserved. Privacy Policy  Contact